FW0904 Weather Reports


time (UTC)temp
F
wind
direction
speed
knots
gust
knots
rain 1hr
in
rain 24hr
in
rain mn
in
humidity
%
barometer
mb
20260507154532 54 157 0.0 0.0 0.00 0.00 0.00 75 1017.6
20260507153034 55 157 0.0 0.9 0.00 0.00 0.00 73 1017.6
20260507151529 56 157 0.0 3.5 0.00 0.00 0.00 72 1017.6
20260507150027 56 167 0.0 2.6 0.00 0.00 0.00 71 1017.6
20260507144529 57 161 0.0 1.7 0.00 0.00 0.00 68 1017.5
20260507143022 56 205 0.9 2.6 0.00 0.00 0.00 69 1017.5
20260507141518 56 159 0.9 2.6 0.00 0.00 0.00 71 1017.5
20260507133055 56 198 0.9 5.2 0.00 0.00 0.00 64 1017.7
20260507131555 57 146 2.6 5.2 0.00 0.00 0.00 65 1017.6
20260507130107 56 144 0.9 4.3 0.00 0.00 0.00 67 1017.7
20260507124618 56 256 0.9 6.1 0.00 0.00 0.00 65 1017.6
20260507123106 57 215 1.7 7.0 0.00 0.00 0.00 64 1017.7
20260507121559 57 165 0.0 5.2 0.00 0.00 0.00 60 1017.8
20260507120052 56 209 1.7 6.1 0.00 0.00 0.00 62 1017.7
20260507114553 56 215 4.3 7.8 0.00 0.00 0.00 62 1017.7
20260507113049 56 197 2.6 6.1 0.00 0.00 0.00 60 1017.7
20260507111549 56 186 1.7 5.2 0.00 0.00 0.00 60 1017.8
20260507110047 56 163 0.0 4.3 0.00 0.00 0.00 62 1017.9
20260507104544 57 196 0.9 4.3 0.00 0.00 0.00 64 1018.1
20260507103043 57 178 0.0 3.5 0.00 0.00 0.00 67 1018.1
20260507101550 58 173 0.0 2.6 0.00 0.00 0.00 62 1018.2
20260507100050 57 143 0.0 3.5 0.00 0.00 0.00 69 1018.2
20260507094539 56 165 0.0 4.3 0.00 0.00 0.00 67 1018.1
20260507093039 57 146 1.7 5.2 0.00 0.00 0.00 63 1018.1
20260507091533 55 168 0.0 1.7 0.00 0.00 0.00 71 1018.1
20260507090032 54 176 0.0 1.7 0.00 0.00 0.00 73 1018.0
20260507084529 53 192 1.7 5.2 0.00 0.00 0.00 70 1017.9
20260507083030 54 190 0.9 2.6 0.00 0.00 0.00 71 1017.9
20260507081525 53 163 0.0 0.0 0.00 0.00 0.00 77 1017.9
20260507080023 52 163 0.0 0.0 0.00 0.00 0.00 77 1017.9
20260507074520 52 42 0.0 0.0 0.00 0.00 0.00 80 1017.9
20260507073017 51 42 0.0 0.0 0.00 0.00 0.00 81 1017.8
20260507071514 51 42 0.0 0.0 0.00 0.00 0.00 84 1017.7
20260507070014 50 42 0.0 0.0 0.00 0.00 0.00 84 1017.7
20260507064510 50 42 0.0 0.0 0.00 0.00 0.00 85 1017.7
20260507063008 49 42 0.0 0.0 0.00 0.00 0.00 87 1017.6
20260507061504 48 42 0.0 0.0 0.00 0.00 0.00 88 1017.5
20260507060010 48 42 0.0 0.0 0.00 0.00 0.00 88 1017.4
20260507054600 47 42 0.0 0.0 0.00 0.00 0.00 89 1017.2
20260507053059 47 42 0.0 0.0 0.00 0.00 0.00 89 1017.2
20260507051601 47 42 0.0 0.0 0.00 0.00 0.00 88 1017.1
20260507050059 47 42 0.0 0.0 0.00 0.00 0.00 89 1017.1
20260507044556 47 42 0.0 0.0 0.00 0.00 0.00 89 1016.9
20260507043055 47 42 0.0 0.0 0.00 0.00 0.00 89 1016.9
20260507041555 47 42 0.0 0.0 0.00 0.00 0.00 89 1016.9
20260507040053 47 42 0.0 0.0 0.00 0.00 0.00 89 1016.8
20260507034553 47 42 0.0 0.0 0.00 0.00 0.00 89 1016.8
20260507033051 47 42 0.0 0.0 0.00 0.00 0.00 89 1016.7
20260507031550 47 42 0.0 0.0 0.00 0.00 0.00 89 1016.7
20260507030049 46 42 0.0 0.0 0.00 0.00 0.00 88 1016.7
20260507024601 47 42 0.0 0.0 0.00 0.00 0.00 88 1016.6
20260507023046 47 42 0.0 0.0 0.00 0.00 0.00 88 1016.5
20260507021545 47 42 0.0 0.0 0.00 0.00 0.00 88 1016.4
20260507014553 47 42 0.0 0.0 0.00 0.00 0.00 87 1016.3
20260507013047 47 42 0.0 0.0 0.00 0.00 0.00 87 1016.4
20260507011541 47 42 0.0 0.0 0.00 0.00 0.00 87 1016.4
20260507010040 47 42 0.0 0.0 0.00 0.00 0.00 87 1016.4
20260507004543 47 42 0.0 0.0 0.00 0.00 0.00 87 1016.4
20260507003038 47 42 0.0 0.0 0.00 0.00 0.00 87 1016.3
20260507001538 47 42 0.0 0.0 0.00 0.00 0.00 87 1016.4
20260507000037 47 42 0.0 0.0 0.00 0.00 0.00 86 1016.4
20260506234539 47 42 0.0 0.0 0.00 0.00 0.00 86 1016.4
20260506233034 48 42 0.0 0.0 0.00 0.00 0.00 85 1016.4
20260506231545 48 42 0.0 0.0 0.00 0.00 0.00 85 1016.4
20260506230039 48 42 0.0 0.0 0.00 0.00 0.00 85 1016.3
20260506224531 48 42 0.0 0.0 0.00 0.00 0.00 85 1016.3
20260506223044 49 42 0.0 0.0 0.00 0.00 0.00 85 1016.2
20260506221529 49 42 0.0 0.0 0.00 0.00 0.00 85 1016.2
20260506220030 49 42 0.0 1.7 0.00 0.00 0.00 85 1016.1
20260506214527 48 42 0.0 0.0 0.00 0.00 0.00 86 1016.1
20260506213029 49 42 0.0 0.0 0.00 0.00 0.00 85 1016.0
20260506211532 49 42 0.0 0.0 0.00 0.00 0.00 85 1015.9
20260506210030 49 42 0.0 0.0 0.00 0.00 0.00 84 1015.8
20260506204523 49 42 0.0 0.0 0.00 0.00 0.00 84 1015.8
20260506203027 49 42 0.0 0.0 0.00 0.00 0.00 83 1015.7
20260506201531 49 42 0.0 0.0 0.00 0.00 0.00 83 1015.6
20260506200019 49 42 0.0 0.0 0.00 0.00 0.00 82 1015.5
20260506194525 50 42 0.0 0.0 0.00 0.00 0.00 82 1015.3
20260506193016 50 42 0.0 0.0 0.00 0.00 0.00 82 1015.2
20260506191516 51 42 0.0 0.0 0.00 0.00 0.00 81 1015.0
20260506190014 51 42 0.0 0.9 0.00 0.00 0.00 80 1015.0
20260506184513 51 42 0.0 0.9 0.00 0.00 0.00 79 1014.8
20260506183019 51 42 0.0 1.7 0.00 0.00 0.00 78 1014.7
20260506181510 52 42 0.0 0.9 0.00 0.00 0.00 77 1014.6
20260506180011 52 42 0.0 1.7 0.00 0.00 0.00 76 1014.5
20260506174510 52 42 0.0 1.7 0.00 0.00 0.00 75 1014.3
20260506173005 53 42 0.0 1.7 0.00 0.00 0.00 74 1014.2
20260506171504 53 42 0.0 2.6 0.00 0.00 0.00 74 1014.1
20260506170003 53 42 0.9 2.6 0.00 0.00 0.00 74 1014.0
20260506164506 54 42 0.9 1.7 0.00 0.00 0.00 73 1014.0
20260506163003 54 42 0.9 1.7 0.00 0.00 0.00 75 1014.1
20260506161502 54 42 0.0 2.6 0.00 0.00 0.00 75 1013.9